ニート彗星

P/2003 F2 ( NEAT )

English version
Home page
Updated on April 18, 2003

---------------------------------------------------------------------

・ プロフィール

発見日 2003年3月27日
発見光度 20.4等
発見者 Near-Earth-Asteroid Tracking Team (Jet Propulsion Laboratory)

・ 軌道要素

T 2003 Apr. 25.477 TT                                   MPC
q   2.87560              (2000.0)            P               Q
n   0.061166       Peri.  194.900       -0.972114       +0.234468
a   6.37966        Node   358.636       -0.191333       -0.804009
e   0.54925        Incl.   10.827       -0.135598       -0.546438
P  16.1
>From 59 observations 2003 Mar. 27-Apr. 7.

・ 星図

・ 光度変化

        m1 = 13.5 + 5 logΔ + 10.0 log r

---------------------------------------------------------------------

軌道要素はM.P.E.C. 2003-G53に掲載されたものです。
星図は StellaNavigator Ver.2.0 for Windows (アストロアーツ 編著 / アスキー出版局刊) で作成したものです。
光度グラフはComet for Windowsで作成したものです。

---------------------------------------------------------------------

Copyright(C) Seiichi Yoshida (comet@aerith.net). All rights reserved.